Location: Ciserano
(45.5833°N, 9.6000°E)
Time: 07:16:43
(UTC+00:00)

Cosmos 1295 Rocket - Pass Details

Date: 26 April 2021
Orbit: 944 x 993 km, 82.9° (Epoch: 13 May)

Event Time Altitude Azimuth Distance (km) Brightness Sun altitude
Rises 00:32:57 0° 341° (NNW) 3,691 8.2 -28.6°
Reaches altitude 10° 00:35:53 10° 329° (NNW) 2,746 7.3 -28.4°
Enters shadow 00:40:30 25° 282° (WNW) 1,875 5.8 -28.1°
